Sweetwater, TX

8:59 AM CST on December 07, 2016 (GMT -0600)
Avenger

Weather History for KSWW - April, 2013

Change the Weather History Date:

Monday, April 8, 2013

  Actual Average Record
Temperature  
Mean Temperature 76 °F -  
Max Temperature 89 °F 77 °F 95 °F (1963)
Min Temperature 62 °F 48 °F 23 °F (1938)
Cooling Degree Days 10    
Growing Degree Days 26 (Base 50)    
Moisture  
Dew Point 54 °F    
Average Humidity 53    
Maximum Humidity 92    
Minimum Humidity 17    
Precipitation  
Precipitation 0.00 in - - ()
Sea Level Pressure  
Sea Level Pressure 29.67 in    
Wind  
Wind Speed 18 mph (SSE)    
Max Wind Speed 30 mph    
Max Gust Speed 37 mph    
Visibility 10 miles    
Events      
Averages and records for this station are not official NWS values.
T = Trace of Precipitation, MM = Missing Value Source: NWS Daily Summary

Daily Weather History Graph

Daily Weather History Graph

Search for Another Location

Airport or City:

Trip Planner

Search our weather history database for the weather conditions in past years. The results will help you decide how hot, cold, wet, or windy it might be!

Date:

Astronomy

Apr. 08, 2013 Rise Set
Actual Time 7:20 AM CDT 8:06 PM CDT
Civil Twilight 6:55 AM CDT 8:31 PM CDT
Nautical Twilight 6:26 AM CDT 9:01 PM CDT
Astronomical Twilight 5:56 AM CDT 9:31 PM CDT
Moon 6:06 AM CDT (4/8) 6:46 PM CDT (4/8)
Length of Visible Light 13h 36m
Length of Day
12h 46m
Waning Crescent, 3% of the Moon is Illuminated
Apr 8
Waning Crescent
Apr 10
New
Apr 18
First Quarter
Apr 25
Full
May 2
Last Quarter

Hourly Weather History & Observations

Time (CDT) Temp. Heat Index Dew Point Humidity Pressure Visibility Wind Dir Wind Speed Gust Speed Precip Events Conditions
12:15 AM 74.7 °F - 47.7 °F 38% 29.74 in 10.0 mi South 16.1 mph - N/A   Clear
12:35 AM 74.3 °F - 48.7 °F 40% 29.74 in 10.0 mi South 15.0 mph - N/A   Clear
12:55 AM 73.4 °F - 49.5 °F 43% 29.74 in 10.0 mi South 13.8 mph - N/A   Clear
1:15 AM 72.7 °F - 50.5 °F 46% 29.75 in 10.0 mi South 12.7 mph - N/A   Clear
1:35 AM 72.3 °F - 52.0 °F 49% 29.74 in 10.0 mi South 13.8 mph - N/A   Clear
1:55 AM 71.6 °F - 53.6 °F 53% 29.74 in 10.0 mi South 12.7 mph - N/A   Clear
2:15 AM 71.2 °F - 54.5 °F 55% 29.74 in 10.0 mi South 12.7 mph - N/A   Clear
2:35 AM 70.7 °F - 55.0 °F 58% 29.73 in 10.0 mi South 13.8 mph - N/A   Clear
2:55 AM 69.4 °F - 55.0 °F 60% 29.73 in 10.0 mi SSE 13.8 mph - N/A   Clear
3:15 AM 67.8 °F - 55.6 °F 65% 29.72 in 10.0 mi SSE 13.8 mph - N/A   Clear
3:35 AM 68.0 °F - 57.0 °F 68% 29.72 in 10.0 mi SSE 15.0 mph - N/A   Clear
3:55 AM 68.0 °F - 57.4 °F 69% 29.70 in 10.0 mi SSE 16.1 mph - N/A   Clear
4:15 AM 68.0 °F - 57.4 °F 69% 29.70 in 10.0 mi South 17.3 mph - N/A   Clear
4:35 AM 67.5 °F - 57.4 °F 70% 29.70 in 10.0 mi SSE 16.1 mph - N/A   Clear
4:55 AM 66.4 °F - 57.6 °F 73% 29.70 in 10.0 mi SSE 16.1 mph - N/A   Clear
5:15 AM 65.7 °F - 57.7 °F 76% 29.69 in 10.0 mi SSE 16.1 mph - N/A   Clear
5:35 AM 64.8 °F - 58.1 °F 79% 29.70 in 10.0 mi SSE 16.1 mph - N/A   Clear
5:55 AM 64.4 °F - 58.8 °F 82% 29.70 in 10.0 mi SSE 18.4 mph 25.3 mph N/A   Clear
6:15 AM 63.7 °F - 59.0 °F 85% 29.70 in 10.0 mi SSE 18.4 mph - N/A   Clear
6:35 AM 63.5 °F - 59.5 °F 87% 29.70 in 10.0 mi SSE 19.6 mph - N/A   Clear
6:55 AM 63.3 °F - 59.7 °F 88% 29.70 in 10.0 mi South 20.7 mph - N/A   Clear
7:15 AM 62.6 °F - 59.9 °F 91% 29.71 in 10.0 mi SSE 18.4 mph - N/A   Clear
7:35 AM 62.2 °F - 59.9 °F 92% 29.72 in 10.0 mi South 18.4 mph - N/A   Clear
7:55 AM 62.4 °F - 60.1 °F 92% 29.72 in 10.0 mi SSE 18.4 mph - N/A   Clear
8:15 AM 63.0 °F - 60.1 °F 90% 29.72 in 10.0 mi South 20.7 mph 26.5 mph N/A   Clear
8:35 AM 64.2 °F - 60.3 °F 87% 29.72 in 10.0 mi SSE 21.9 mph 27.6 mph N/A   Clear
8:55 AM 65.5 °F - 60.4 °F 84% 29.73 in 10.0 mi South 16.1 mph 25.3 mph N/A   Clear
9:15 AM 66.6 °F - 60.3 °F 80% 29.73 in 10.0 mi South 21.9 mph - N/A   Clear
9:35 AM 68.0 °F - 60.3 °F 76% 29.74 in 10.0 mi South 23.0 mph 29.9 mph N/A   Clear
9:55 AM 69.3 °F - 60.1 °F 72% 29.74 in 10.0 mi South 21.9 mph 28.8 mph N/A   Clear
10:15 AM 70.3 °F - 59.9 °F 69% 29.74 in 10.0 mi South 25.3 mph 31.1 mph N/A   Clear
10:35 AM 71.8 °F - 59.9 °F 66% 29.74 in 10.0 mi South 23.0 mph 28.8 mph N/A   Clear
10:55 AM 72.9 °F - 59.5 °F 63% 29.74 in 10.0 mi South 20.7 mph 26.5 mph N/A   Clear
11:15 AM 74.5 °F - 59.2 °F 59% 29.74 in 10.0 mi South 20.7 mph 27.6 mph N/A   Clear
11:35 AM 75.9 °F - 58.6 °F 55% 29.73 in 10.0 mi South 20.7 mph 27.6 mph N/A   Clear
11:55 AM 76.5 °F - 58.1 °F 53% 29.73 in 10.0 mi South 20.7 mph 29.9 mph N/A   Clear
12:15 PM 78.1 °F - 57.6 °F 49% 29.73 in 10.0 mi South 21.9 mph 27.6 mph N/A   Clear
12:35 PM 79.5 °F - 56.7 °F 45% 29.72 in 10.0 mi South 19.6 mph 26.5 mph N/A   Clear
12:55 PM 80.6 °F 80.5 °F 55.4 °F 42% 29.71 in 10.0 mi South 19.6 mph 25.3 mph N/A   Clear
1:15 PM 81.7 °F 81.0 °F 53.4 °F 38% 29.70 in 10.0 mi SSW 19.6 mph 24.2 mph N/A   Clear
1:35 PM 82.6 °F - 52.5 °F 35% 29.69 in 10.0 mi South 16.1 mph 25.3 mph N/A   Clear
1:55 PM 83.7 °F - 50.7 °F 32% 29.68 in 10.0 mi SSW 18.4 mph 23.0 mph N/A   Clear
2:15 PM 84.6 °F - 48.7 °F 29% 29.67 in 10.0 mi SSW 11.5 mph 24.2 mph N/A   Clear
2:35 PM 85.1 °F - 48.2 °F 28% 29.66 in 10.0 mi South 13.8 mph 23.0 mph N/A   Clear
2:55 PM 86.4 °F - 47.5 °F 26% 29.65 in 10.0 mi South 13.8 mph 19.6 mph N/A   Clear
3:15 PM 87.8 °F - 48.2 °F 25% 29.63 in 10.0 mi South 16.1 mph 23.0 mph N/A   Clear
3:35 PM 88.2 °F - 46.8 °F 24% 29.61 in 10.0 mi South 18.4 mph - N/A   Clear
3:55 PM 88.9 °F - 46.8 °F 23% 29.60 in 10.0 mi South 16.1 mph 21.9 mph N/A   Clear
4:15 PM 89.4 °F - 45.5 °F 22% 29.58 in 10.0 mi SSE 18.4 mph 25.3 mph N/A   Clear
4:35 PM 89.4 °F - 43.7 °F 20% 29.58 in 10.0 mi SSE 16.1 mph 23.0 mph N/A   Clear
4:55 PM 89.1 °F - 44.4 °F 21% 29.58 in 10.0 mi SSE 20.7 mph 27.6 mph N/A   Clear
5:15 PM 89.1 °F - 44.8 °F 21% 29.57 in 10.0 mi SSE 21.9 mph 26.5 mph N/A   Clear
5:35 PM 88.9 °F - 45.9 °F 22% 29.56 in 10.0 mi SSE 25.3 mph 29.9 mph N/A   Clear
5:55 PM 89.6 °F - 41.5 °F 19% 29.56 in 10.0 mi SSE 24.2 mph 27.6 mph N/A   Clear
6:15 PM 88.9 °F - 39.7 °F 18% 29.56 in 10.0 mi SSE 21.9 mph 26.5 mph N/A   Clear
6:35 PM 88.5 °F - 37.6 °F 17% 29.56 in 10.0 mi South 19.6 mph 24.2 mph N/A   Clear
6:55 PM 87.4 °F - 42.4 °F 21% 29.56 in 10.0 mi SSE 19.6 mph 25.3 mph N/A   Clear
7:15 PM 86.2 °F - 42.4 °F 22% 29.56 in 10.0 mi SSE 20.7 mph 27.6 mph N/A   Clear
7:35 PM 85.3 °F - 42.3 °F 22% 29.57 in 10.0 mi SSE 21.9 mph 25.3 mph N/A   Clear
7:55 PM 83.5 °F - 45.5 °F 26% 29.57 in 10.0 mi SE 19.6 mph 23.0 mph N/A   Clear
8:15 PM 81.9 °F - 45.5 °F 28% 29.58 in 10.0 mi SE 16.1 mph 23.0 mph N/A   Clear
8:35 PM 81.3 °F - 44.6 °F 27% 29.58 in 10.0 mi SE 15.0 mph - N/A   Clear
8:55 PM 79.7 °F - 50.4 °F 36% 29.59 in 10.0 mi SE 18.4 mph 24.2 mph N/A   Clear
9:15 PM 76.3 °F - 59.7 °F 56% 29.59 in 10.0 mi SE 20.7 mph 27.6 mph N/A   Clear
9:35 PM 73.8 °F - 60.8 °F 64% 29.60 in 10.0 mi SE 19.6 mph 28.8 mph N/A   Clear
9:55 PM 72.1 °F - 61.0 °F 68% 29.61 in 10.0 mi SE 24.2 mph 31.1 mph N/A   Clear
10:15 PM 71.2 °F - 60.8 °F 69% 29.61 in 10.0 mi SE 23.0 mph 32.2 mph N/A   Clear
10:35 PM 70.7 °F - 60.8 °F 71% 29.61 in 10.0 mi SE 26.5 mph 35.7 mph N/A   Clear
10:55 PM 70.3 °F - 60.8 °F 72% 29.61 in 10.0 mi SE 25.3 mph 34.5 mph N/A   Clear
11:15 PM 70.0 °F - 61.0 °F 73% 29.61 in 10.0 mi SE 29.9 mph 36.8 mph N/A   Clear
11:35 PM 69.3 °F - 60.8 °F 74% 29.61 in 10.0 mi SE 27.6 mph 35.7 mph N/A   Clear
11:55 PM 68.7 °F - 61.0 °F 76% 29.61 in 10.0 mi SE 25.3 mph 34.5 mph N/A   Clear